Location: Unspecified
(0.0000°N, 0.0000°E)
Time: 14:23:20
(UTC+00:00)

TATIANA - Visible Passes

Search period start: 19 April 2026 00:00
Search period end: 29 April 2026 00:00
Orbit: 907 x 964 km, 82.9° (Epoch: 19 April)

Date Brightness Start Highest point End Pass type
(mag) Time Alt. Az. Time Alt. Az. Time Alt. Az.
19 Apr 7.8 03:48:06 10° N 03:53:51 58° E 03:59:40 10° SSE visible
20 Apr 7.2 04:01:14 10° N 04:07:08 85° W 04:13:06 10° S visible
21 Apr 10.2 02:35:30 10° E 02:35:36 10° E 02:35:36 10° E visible
21 Apr 7.7 04:14:44 10° NNW 04:27:40 - S 04:19:11 44° NW visible
22 Apr 10.0 02:45:32 10° NE 02:46:29 13° NE 02:46:29 13° NE visible
22 Apr 9.0 04:28:38 10° NNW 04:30:09 17° NW 04:30:09 17° NW visible
23 Apr 9.9 02:57:38 10° NNE 02:58:11 12° NNE 02:58:11 12° NNE visible
